Flag for Canada Weather past 2 weeks in St. Catharines, Ontario, Canada

Now
34 °F

Overcast.


Feels Like: 24 °F
Forecast: 20 / 33 °F
Wind: 15 mph from West

Location: Saint Catharines Airport

Current Time: Mar 4, 2015 at 2:38:50 PM

Latest Report: Mar 4, 2015 at 2:00 PM


Visibility: 15 mi

Pressure: 29.89 "Hg

Humidity: 60%

Dew point: 21 °F

Location of St. CatharinesLocation

Historic Weather in St. Catharines — Graph

°F

St. Catharines temperature yesterday

Maximum temperature yesterday: 37 °F (at 8:00 PM)
Minimum temperature yesterday: 12 °F (at 7:00 AM)
Average temperature yesterday: 26 °F

Past Weeks' High & Low Weather Summary

 TemperatureHumidityPressure
High37 °F (Mar 3, 8:00 PM)93% (Feb 21, 11:00 AM)30.82 "Hg (Feb 21, 11:00 AM)
Low-8 °F (Feb 20, 7:00 AM)37% (Feb 17, 2:00 PM)29.56 "Hg (Mar 3, 8:00 PM)
Average14 °F68%30.19 "Hg
* Reported Feb 17 1:00 PM — Mar 4 1:00 PM, St. Catharines, Weather by CustomWeather, © 2015

Note: Actual official high and low records may vary slightly from our data, if they occured in-between our weather recording intervals... More about our weather records

Advertising

St. Catharines weather history for previous 24 hours

 ConditionsComfort  
Time TempWeatherWind HumidityBarometerVisibility
1:00 PM
Wed, Mar 4
34 °FOvercast.15 mph60%29.90 "Hg15 mi
12:00 PM32 °FPartly sunny.15 mph64%29.90 "Hg15 mi
11:00 AM34 °FPartly sunny.18 mph65%29.90 "Hg12 mi
10:00 AM34 °FPartly sunny.13 mph65%29.91 "Hg12 mi
9:00 AM32 °FPartly sunny.12 mph64%29.89 "Hg12 mi
8:00 AM30 °FPartly sunny.12 mph69%29.88 "Hg12 mi
7:00 AM30 °FPartly sunny.13 mph75%29.83 "Hg15 mi
9:00 PM
Tue, Mar 3
37 °FOvercast.23 mph87%29.60 "Hg8 mi
8:50 PM37 °FOvercast.22 mph87%29.57 "Hg8 mi
8:00 PM37 °FMostly cloudy.25 mph93%29.56 "Hg8 mi
7:00 PM34 °FLight freezing rain. Fog.9 mph93%29.57 "Hg3 mi
6:00 PM32 °FLight freezing rain. Ice fog.8 mph93%29.60 "Hg2 mi
5:49 PM32 °FLight freezing rain. Ice fog.9 mph93%29.61 "Hg2 mi
5:00 PM30 °FLight freezing rain. Ice fog.9 mph93%29.63 "Hg4 mi
4:00 PM28 °FLight freezing rain. Ice fog.7 mph86%29.72 "Hg2 mi
3:48 PM27 °FLight freezing rain. Partly sunny.9 mph93%29.75 "Hg3 mi
3:00 PM25 °FLight freezing rain. Overcast.9 mph86%29.80 "Hg4 mi
2:00 PM23 °FLight snow. Low clouds.8 mph86%29.92 "Hg1 mi
Weather by CustomWeather, © 2015

See weather overviewHow to use our weather pages